This demonstration page uses our WeatherBlox Daily Observations layout. Learn more.

Left ArrowRight Arrow

41.86663, -103.66717

Hourly Observations for November 18, 2019

Temp ( °F °C ) Dew Point ( °F °C ) Humidity (%) Winds ( mph kmh ) Pressure ( in mb ) Visibility ( mi km ) Precip ( " mm )
12:53 am 00:53 Mostly Cloudy 44 6.7 33 0.6 65 65 NW 3 6 29.83 1010 10 16 0.00 0.00
1:53 am 01:53 Mostly Clear 42 5.6 33 0.6 71 71 NW 5 7 29.83 1010 10 16 0.00 0.00
2:53 am 02:53 Clear 36 2.2 30 -1.1 79 79 NW 7 11 29.86 1011 10 16 0.00 0.00
3:53 am 03:53 Clear 38 3.3 30 -1.1 73 73 WNW 8 13 29.87 1011 10 16 0.00 0.00
4:53 am 04:53 Partly Cloudy 39 3.9 31 -0.6 73 73 WNW 7 11 29.90 1013 10 16 0.00 0.00
5:53 am 05:53 Clear 37 2.8 31 -0.6 79 79 WNW 7 11 29.93 1014 10 16 0.00 0.00
6:53 am 06:53 Mostly Cloudy 42 5.6 32 0 68 68 W 9 15 29.95 1014 10 16 0.00 0.00
7:53 am 07:53 Cloudy 45 7.2 33 0.6 63 63 W 10 17 29.95 1014 10 16 0.00 0.00
8:53 am 08:53 Sunny 50 10 33 0.6 52 52 WNW 13 20 29.94 1014 10 16 0.00 0.00
9:53 am 09:53 Sunny 57 13.9 33 0.6 41 41 W 15 24 29.93 1013 10 16 0.00 0.00
10:53 am 10:53 Sunny 61 16.1 34 1.1 36 36 NW 18 30 29.91 1013 10 16 0.00 0.00
11:53 am 11:53 Sunny 63 17.2 31 -0.6 30 30 NNW 20 31 29.88 1012 10 16 0.00 0.00
12:53 pm 12:53 Sunny 63 17.2 30 -1.1 29 29 NW 21 33 29.87 1012 10 16 0.00 0.00
1:53 pm 13:53 Sunny 63 17.2 31 -0.6 30 30 NW 17 28 29.85 1011 10 16 0.00 0.00
2:53 pm 14:53 Sunny 63 17.2 29 -1.7 28 28 NW 15 24 29.87 1011 10 16 0.00 0.00
3:53 pm 15:53 Sunny 59 15 31 -0.6 35 35 NNW 5 7 29.88 1012 10 16 0.00 0.00
4:53 pm 16:53 Clear 45 7.2 29 -1.7 54 54 Calm 29.92 1013 10 16 0.00 0.00
5:53 pm 17:53 Clear 45 7.2 29 -1.7 54 54 Calm 29.94 1014 10 16 0.00 0.00
6:53 pm 18:53 Clear 40 4.4 29 -1.7 65 65 NNE 3 6 29.95 1014 10 16 0.00 0.00
7:53 pm 19:53 Clear 39 3.9 28 -2.2 65 65 Calm 29.94 1014 10 16 0.00 0.00
8:53 pm 20:53 Clear 36 2.2 29 -1.7 76 76 NE 5 7 29.93 1013 10 16 0.00 0.00
9:53 pm 21:53 Clear 38 3.3 31 -0.6 76 76 Calm 29.89 1012 10 16 0.00 0.00
10:53 pm 22:53 Clear 37 2.8 30 -1.1 76 76 Calm 29.87 1011 10 16 0.00 0.00
11:53 pm 23:53 Clear 39 3.9 31 -0.6 73 73 ESE 3 6 29.85 1011 10 16 0.00 0.00

Powered by AerisWeather